Flag for Mozambique Weather past 2 weeks in Maputo, Mozambique

Now
66 °F

Passing clouds.


Feels Like: 66 °F
Forecast: 64 / 72 °F
Wind: 10 mph from Southwest

Location: Maputo / Mavalane

Current Time: Sep 2, 2015 at 9:56:38 PM

Latest Report: Sep 2, 2015 at 7:00 PM


Visibility: N/A

Pressure: 30.12 "Hg

Humidity: 94%

Dew point: 64 °F

Location of MaputoLocation

Historic Weather in Maputo — Graph

°F

Maputo temperature yesterday

Maximum temperature yesterday: 93 °F (at 2:00 PM)
Minimum temperature yesterday: 66 °F (at 5:00 AM)
Average temperature yesterday: 77 °F

Past Weeks' High & Low Weather Summary

 TemperatureHumidityPressure
High93 °F (Sep 1, 2:00 PM)100% (Aug 31, 6:00 AM)30.30 "Hg (Aug 31, 6:00 AM)
Low59 °F (Aug 25, 6:00 AM)28% (Sep 1, 2:00 PM)29.83 "Hg (Sep 1, 2:00 PM)
Average73 °F74%30.09 "Hg
* Reported Aug 18 9:00 PM — Sep 2 7:00 PM, Maputo, Weather by CustomWeather, © 2015

Note: Actual official high and low records may vary slightly from our data, if they occured in-between our weather recording intervals... More about our weather records

Advertising

Maputo weather history for previous 24 hours

 ConditionsComfort  
Time TempWeatherWind HumidityBarometerVisibility
7:00 PM
Wed, Sep 2
66 °FPassing clouds.10 mph94%30.12 "HgN/A
5:00 PM66 °FDrizzle. Mostly cloudy.12 mph94%30.09 "Hg2 mi
4:00 PM66 °FDrizzle. More clouds than sun.15 mph94%30.07 "Hg2 mi
3:00 PM70 °FDrizzle. More clouds than sun.12 mph83%30.07 "Hg2 mi
2:00 PM73 °FMore clouds than sun.13 mph65%30.04 "HgN/A
1:00 PM73 °FMore clouds than sun.12 mph65%30.04 "HgN/A
12:00 PM75 °FMostly cloudy.12 mph61%30.04 "HgN/A
10:00 AM73 °FMostly cloudy.12 mph65%30.07 "HgN/A
9:00 AM75 °FPartly sunny.14 mph61%30.07 "HgN/A
8:00 AM72 °FPartly sunny.12 mph69%30.07 "HgN/A
7:00 AM72 °FBroken clouds.10 mph73%30.04 "HgN/A
6:00 AM72 °FBroken clouds.10 mph78%30.01 "HgN/A
5:00 AM72 °FPassing clouds.10 mph83%29.98 "HgN/A
3:00 AM72 °FPassing clouds.15 mph83%29.95 "HgN/A
1:00 AM72 °FPassing clouds.10 mph88%29.92 "HgN/A
11:00 PM
Tue, Sep 1
73 °FPassing clouds.6 mph83%29.89 "HgN/A
10:00 PM75 °FPassing clouds.9 mph83%29.89 "HgN/A
9:00 PM75 °FPassing clouds.13 mph83%29.86 "HgN/A
Weather by CustomWeather, © 2015

See weather overviewHow to use our weather pages